Other Public Products
Issued by NWS Grand Forks, ND

Home | Current Version | Previous Version | Graphics & Text | Print | Product List | Glossary On
Versions: 1 2 3 4 5 6 7 8 9 10 11 12 13 14 15 16 17 18 19 20 21 22 23 24 25 26 27 28 29 30 31 32 33 34 35 36 37 38 39 40 41 42 43 44 45 46 47 48 49 50
000
FPUS83 KFGF 221410
OPUFGF
PRAIRIE TO PINES WEATHER ROUNDUP
NATIONAL WEATHER SERVICE EASTERN NORTH DAKOTA/GRAND FORKS ND
800 AM CST SUN JAN 22 2017

 **SATELLITE DATA USED TO AUGMENT SKY COVER AT AUTOMATED STATIONS**
 *****  WEATHER ACROSS EASTERN NORTH DAKOTA  *****

CITY           SKY/WX    TMP DP  RH WIND       PRES   REMARKS
GRAND FORKS    CLOUDY    34  31  88 W6        29.68R FOG
GRAND FORKS AF NOT AVBL
GRAND CITY NWS NOT AVBL
BUXTON         NOT AVBL
DEVILS LAKE    CLOUDY    29  27  92 NW12      29.67R FOG     WCI  19
FARGO          CLOUDY    35  33  92 NW6       29.70R
WAHPETON ARPT  CLOUDY    32  32 100 W9        29.71R WCI  24
$$

 *****  WEATHER ACROSS CENTRAL AND WESTERN NORTH DAKOTA  *****

CITY           SKY/WX    TMP DP  RH WIND       PRES   REMARKS
JAMESTOWN      CLOUDY    30  29  96 W10       29.69R FOG     WCI  21
BISMARCK       CLOUDY    28  26  92 W9        29.75R WCI  19
MINOT          CLOUDY    31  26  82 W16       29.69R WCI  20
MINOT AFB      NOT AVBL
GARRISON         N/A     29  28  96 W10       29.71R WCI  20
WILLISTON      CLOUDY    29  26  89 W12       29.76R WCI  19
DICKINSON      CLOUDY    23  21  92 W13       29.73R FOG     WCI  11
HETTINGER      CLOUDY    21  18  88 NW18      29.77R FOG     WCI   6
$$

 *****  OTHER OBSERVATIONS NORTHEAST NORTH DAKOTA  *****

CITY           SKY/WX    TMP DP  RH WIND       PRES   REMARKS
WALHALLA       NOT AVBL
LANGDON        NOT AVBL
CAVALIER       CLOUDY    32  32 100 CALM      29.68R FOG
GRAFTON        CLOUDY    32  32 100 W7        29.70R FOG
CANDO          NOT AVBL
FORT TOTTEN      N/A     29  29 100 W8        29.95S WCI  21
ROLLA            N/A    N/A N/A N/A MISG        N/A
RUGBY            N/A     27  27 100 W10       29.68R FOG     WCI  17
 ***** THE ABOVE OBSERVATIONS ARE NON NWS ARE NOT QUALITY
        CONTROLLED AND MAY MIS-REPORT RAIN FOR SNOW...
$$

 *****  OTHER OBSERVATIONS SOUTHEAST NORTH DAKOTA *****

CITY           SKY/WX    TMP DP  RH WIND       PRES   REMARKS
COOPERSTOWN    CLOUDY    30  30 100 NW13      29.68S FOG     WCI  20
VALLEY CITY    MIX PCPN  30  30 100 NW10      29.71R WCI  21
OAKES          NOT AVBL
GWINNER        CLOUDY    32  32 100 W9        29.71R WCI  24
SHEYENNE NWR     N/A     32  30  93 W6        29.95S
BUFFALO        NOT AVBL
WYNDMERE       NOT AVBL
 ***** THE ABOVE OBSERVATIONS ARE NON NWS ARE NOT QUALITY
       CONTROLLED AND MAY MIS-REPORT RAIN FOR SNOW...
$$

  *****  WEATHER ACROSS NORTHERN MINNESOTA  *****

CITY           SKY/WX    TMP DP  RH WIND       PRES   REMARKS
FLAG ISLAND    CLOUDY    32  32 100 CALM      29.67R
WARROAD        FOG       34  28  80 CALM      29.68R VSB 1
ROSEAU         HAZE      34  28  80 CALM      29.68R VSB 1/4
HALLOCK        FOG       34  34 100 CALM      29.67S VSB 1/4
THF RVR FALLS  FOG       33  32  96 CALM      29.68R VSB 1/4
HALSTAD        NOT AVBL
FOSSTON        FOG       30  30 100 CALM      29.67S VSB<1/4
BAUDETTE       CLOUDY    33  32  96 CALM      29.67R FOG
WASKISH        FOG       34  34 100 CALM      29.67R VSB 1
CROOKSTON      FOG       34  34 100 CALM      29.69S VSB 1/4
$$
  *****  WEATHER ACROSS CENTRAL AND WEST MINNESOTA  *****

CITY           SKY/WX    TMP DP  RH WIND       PRES   REMARKS
BEMIDJI        CLOUDY    32  32 100 CALM      29.66R FOG
PARK RAPIDS    CLOUDY    34  32  93 NW3       29.65R
WADENA         CLOUDY    32  32 100 CALM      29.66S FOG
DETROIT LAKES  FOG       34  34 100 CALM      29.68R VSB 1/2
MOORHEAD       CLOUDY    34  32  93 NW8       29.70S FOG
FERGUS FALLS   FOG       32  32 100 W7        29.74R VSB 1/4
ELBOW LAKE     SNOW      32  32 100 NW8       29.70R VSB 1/4 WCI  25
MORRIS MN      FOG       34  34 100 NW10      29.69R VSB<1/4
STAPLES        CLOUDY    32  32 100 CALM      29.67R FOG
WHEATON        CLOUDY    39  39 100 W8        29.73R FOG
$$
  *****  WEATHER ELSEWHERE ACROSS MINNESOTA  *****

CITY           SKY/WX    TMP DP  RH WIND       PRES   REMARKS
DULUTH         FOG       34  34 100 NW3       29.62R VSB 1/2
INTRNTL FALLS  FOG       34  32  92 NW3       29.66R VSB 1/2
ELY            LGT SNOW  32  32 100 CALM      29.63R
CLOQUET        CLOUDY    34  34 100 W5        29.63R
BRAINERD       CLOUDY    33  33 100 N3        29.66R FOG
HIBBING        CLOUDY    32  32 100 N5        29.63R
ALEXANDRIA     FOG       33  33 100 NW3       29.68R VSB 1/2
SAINT CLOUD    CLOUDY    34  34 100 NW5       29.67R FOG
MINNEAPOLIS    CLOUDY    35  33  92 N6        29.66R
$$

  *****  WEATHER ACROSS SOUTH DAKOTA  *****

CITY           SKY/WX    TMP DP  RH WIND       PRES   REMARKS
SIOUX FALLS    FLURRIES  33  32  96 NW10      29.72R WCI  25
BROOKINGS      CLOUDY    31  30  96 NW13      29.71R FOG     WCI  21
WATERTOWN      FOG       30  30 100 W8        29.71R VSB 1/2 WCI  22
HURON          FAIR      20  20 100 N6        29.77R WCI  12
SISSETON         N/A     33  32  96 NW13      29.71R WCI  24
ABERDEEN       CLOUDY    27  23  85 W7        29.75R WCI  19
MITCHELL       FAIR      27  27 100 NW7       29.77R FOG     WCI  19
PIERRE         FAIR      20  17  88 W5        29.78R WCI  13
MOBRIDGE       CLOUDY    13   8  81 W3        29.76R
RAPID CITY     FAIR      24  17  74 NW9       29.79R WCI  14
$$

  *****  SOME WEATHER IN NEARBY STATES *****

CITY           SKY/WX    TMP DP  RH WIND       PRES   REMARKS
GLASGOW MT     CLOUDY    27  26  96 W9        29.79R FOG     WCI  18
GREAT FALLS MT CLOUDY    24  18  77 NE5       29.79S WCI  18
CHEYENNE WY    FAIR      27  13  55 NW18      29.86R WCI  14
SCOTTSBLUFF NE FAIR      24  19  81 W8        29.86R WCI  15
OMAHA NE       CLOUDY    33  28  81 N14       29.72R WCI  23
DES MOINES IA  CLOUDY    34  31  88 NW5       29.67R
DAVENPORT IA   FOG       30  30 100 CALM      29.64R VSB<1/4
CHICAGO IL     CLOUDY    41  38  89 NE5       29.62R
EAU CLAIRE WI  FOG       33  33 100 W5        29.62R VSB 1/2
LA CROSSE WI   FOG       37  34  89 CALM      29.63R VSB 1/4
$$

  *****  SOME NATIONAL WEATHER *****

CITY           SKY/WX    TMP DP  RH WIND       PRES   REMARKS
LA GUARDIA NY  FOG       44  43  96 NE8       29.73S VSB<1/4
RALEIGH NC     CLOUDY    54  52  93 CALM      29.69S
ATLANTA GA     CLOUDY    57  56  96 SE6       29.57S
NEW ORLEANS LA LGT RAIN  61  53  75 NW17G30   29.51R
OKLAHOMA CITY  LGT RAIN  48  45  89 N30G40    29.53R
ALBUQUERQUE NM FAIR      29  21  72 S6        30.10R WCI  23
SALT LAKE CITY FAIR      27  21  78 SE10      29.96R WCI  17
LOS ANGELES CA RAIN      51  48  89 E12       30.08R
BOISE ID       FAIR      38  26  62 SE15      29.72F
SEATTLE WA     MOCLDY    46  32  58 E17G24    29.39F
$$

*** WEATHER ACROSS MANITOBA...SASKATCHEWAN AND ONTARIO ***
                ***ONTARIO***

CITY           SKY/WX    TMP DP  RH WIND       PRES   REMARKS
GERALDTON      FRZ DRZL  32  30  93 NE9       29.69R VSB 1   WCI  24
THUNDER BAY    DRIZZLE   34  34 100 VRB2      29.64R FOG
SIOUX LOOKOUT  CLOUDY    32  32 100 E3        29.68R
TORONTO        FOG       39  37  93 E3        29.72R VSB 1/4
BIG TROUT LK   CLOUDY    23  23 100 SE6       29.84R WCI  16
PICKLE LAKE    LGT SNOW  28  27  93 E7        29.74R WCI  21
DRYDEN         HVY SNOW  32  32 100 NE7       29.66S VSB 1/4
KENORA         FOG       32  32 100 E5        29.67R VSB 1/4
$$
                *** MANITOBA***

CITY           SKY/WX    TMP DP  RH WIND       PRES   REMARKS
BRANDON        CLOUDY    32  30  93 W13       29.64S FOG     WCI  22
DAUPHIN        LGT RAIN  32  32 100 N2        29.65R FOG
ISLAND LAKE    NOT AVBL
PILOT MOUND      N/A     28  28 100 W3          N/A
THE PAS        FLURRIES  32  32 100 NE5       29.69R
THOMPSON       FLURRIES  28  27  93 NE7       29.76R WCI  21
WINNIPEG       FOG       34  32  93 E3        29.67R VSB 1
LYNN LAKE      LGT SNOW  25  25 100 NE7       29.79R WCI  17
CHURCHILL      FOG       19  19 100 E7        29.91S VSB 1   WCI  10
GILLAM         CLOUDY    25  23  93 E3        29.83R FOG
$$
                ***SASKATCHEWAN***

CITY           SKY/WX    TMP DP  RH WIND       PRES   REMARKS
ESTEVAN        CLOUDY    27  25  93 W9        29.71R WCI  17
KINDERSLEY     FLURRIES  21  19  93 NW13      29.80R WCI   9
LLOYDMINSTER   LGT SNOW  18  18 100 NW10G17   29.85R FOG     WCI   6
PRINCE ALBERT  FRZ DRZL  27  23  86 N10G17    29.73R WCI  17
REGINA         CLOUDY    27  25  93 NW12      29.70R WCI  16
YORKTON        FLURRIES  27  25  93 W7        29.65R WCC1F1C2F2C3F3C4F4C5F5C6F6C7F7C8F8C9F9CaFaCbFbCcFcCdFdCe!



USA.gov is the U.S. government's official web portal to all federal, state and local government web resources and services.